contact:dominique.lefevre@mio.osupytheas.fr, maurice.libes@osupytheas.fr, didier.mallarino@osupytheas.fr
Project:EMSO http://www.emso-fr.org/EMSO-France
Depth: 2436.0 m
Title:EMSO Ligure Ouest : Data MII capteur CSTAR
DateTime,Latitude,Longitude,Instrument_Serial,Reference_Counts,Signal_Counts,Corrected_Signal_raw_counts,Calculated_Beam_c_inverse_meters,Internal_thermistor_counts
DateTime,Latitude,Longitude,Instrument_Serial,Reference_Counts,Signal_Counts,Corrected_Signal_raw_counts,Calculated_Beam_c_inverse_meters,Internal_thermistor_counts
2020-12-21T00:01:03,42.805,6.029,CST-1368DR,5684,7953,15052,0.147,550
2020-12-21T00:04:05,42.805,6.029,CST-1368DR,5683,7953,15053,0.147,551
2020-12-21T00:07:06,42.805,6.029,CST-1368DR,5683,7952,15052,0.147,551
2020-12-21T00:10:08,42.805,6.029,CST-1368DR,5683,7953,15053,0.147,551
2020-12-21T00:13:10,42.805,6.029,CST-1368DR,5684,7953,15051,0.147,551
2020-12-21T00:16:11,42.805,6.029,CST-1368DR,5683,7952,15052,0.147,551
2020-12-21T00:19:13,42.805,6.029,CST-1368DR,5683,7953,15053,0.147,551
2020-12-21T00:22:14,42.805,6.029,CST-1368DR,5684,7953,15052,0.147,551
2020-12-21T00:25:16,42.805,6.029,CST-1368DR,5683,7952,15052,0.147,551
2020-12-21T00:28:17,42.805,6.029,CST-1368DR,5683,7952,15052,0.147,551
2020-12-21T00:31:19,42.805,6.029,CST-1368DR,5684,7953,15051,0.147,551
2020-12-21T00:34:21,42.805,6.029,CST-1368DR,5683,7952,15052,0.147,551
2020-12-21T00:37:22,42.805,6.029,CST-1368DR,5683,7952,15052,0.147,551
2020-12-21T00:40:24,42.805,6.029,CST-1368DR,5683,7952,15052,0.147,551
2020-12-21T00:43:25,42.805,6.029,CST-1368DR,5683,7952,15052,0.147,551
2020-12-21T00:46:27,42.805,6.029,CST-1368DR,5683,7952,15052,0.147,551
2020-12-21T00:49:28,42.805,6.029,CST-1368DR,5683,7952,15052,0.147,551
2020-12-21T00:52:30,42.805,6.029,CST-1368DR,5683,7953,15053,0.147,551
2020-12-21T00:55:32,42.805,6.029,CST-1368DR,5683,7952,15052,0.147,551
2020-12-21T00:58:33,42.805,6.029,CST-1368DR,5683,7950,15049,0.148,551
2020-12-21T01:01:35,42.805,6.029,CST-1368DR,5683,7953,15053,0.147,551
2020-12-21T01:04:36,42.805,6.029,CST-1368DR,5683,7952,15052,0.147,551
2020-12-21T01:07:38,42.805,6.029,CST-1368DR,5683,7952,15052,0.147,551
2020-12-21T01:10:40,42.805,6.029,CST-1368DR,5683,7952,15052,0.147,551
2020-12-21T01:13:41,42.805,6.029,CST-1368DR,5683,7952,15052,0.147,551
2020-12-21T01:16:43,42.805,6.029,CST-1368DR,5683,7952,15051,0.147,551
2020-12-21T01:19:44,42.805,6.029,CST-1368DR,5683,7953,15053,0.147,551
2020-12-21T01:22:46,42.805,6.029,CST-1368DR,5683,7952,15052,0.147,551
2020-12-21T01:25:47,42.805,6.029,CST-1368DR,5683,7952,15052,0.147,551
2020-12-21T01:28:49,42.805,6.029,CST-1368DR,5683,7952,15051,0.147,551
2020-12-21T01:31:51,42.805,6.029,CST-1368DR,5683,7951,15051,0.147,551
2020-12-21T01:34:52,42.805,6.029,CST-1368DR,5683,7952,15051,0.147,551
2020-12-21T01:37:54,42.805,6.029,CST-1368DR,5683,7952,15051,0.147,551
2020-12-21T01:40:55,42.805,6.029,CST-1368DR,5683,7952,15052,0.147,551
2020-12-21T01:43:57,42.805,6.029,CST-1368DR,5683,7952,15051,0.147,551
2020-12-21T01:46:59,42.805,6.029,CST-1368DR,5683,7953,15053,0.147,551
2020-12-21T01:50:00,42.805,6.029,CST-1368DR,5683,7953,15053,0.147,551
2020-12-21T01:53:02,42.805,6.029,CST-1368DR,5683,7952,15051,0.147,551
2020-12-21T01:56:03,42.805,6.029,CST-1368DR,5683,7952,15052,0.147,551
2020-12-21T01:59:05,42.805,6.029,CST-1368DR,5683,7952,15052,0.147,551
2020-12-21T02:02:06,42.805,6.029,CST-1368DR,5683,7953,15053,0.147,551
2020-12-21T02:05:08,42.805,6.029,CST-1368DR,5683,7953,15053,0.147,551
2020-12-21T02:08:10,42.805,6.029,CST-1368DR,5683,7952,15052,0.147,551
2020-12-21T02:11:11,42.805,6.029,CST-1368DR,5683,7953,15053,0.147,551
2020-12-21T02:14:13,42.805,6.029,CST-1368DR,5683,7952,15052,0.147,551
2020-12-21T02:17:14,42.805,6.029,CST-1368DR,5683,7952,15051,0.147,551
2020-12-21T02:20:16,42.805,6.029,CST-1368DR,5683,7953,15053,0.147,551
2020-12-21T02:23:17,42.805,6.029,CST-1368DR,5683,7953,15054,0.147,551
2020-12-21T02:26:19,42.805,6.029,CST-1368DR,5683,7953,15053,0.147,551
2020-12-21T02:29:21,42.805,6.029,CST-1368DR,5683,7952,15052,0.147,551
2020-12-21T02:32:22,42.805,6.029,CST-1368DR,5683,7952,15052,0.147,551
2020-12-21T02:35:24,42.805,6.029,CST-1368DR,5683,7952,15052,0.147,551
2020-12-21T02:38:25,42.805,6.029,CST-1368DR,5683,7952,15052,0.147,551
2020-12-21T02:41:27,42.805,6.029,CST-1368DR,5683,7953,15053,0.147,551
2020-12-21T02:44:29,42.805,6.029,CST-1368DR,5683,7952,15052,0.147,551
2020-12-21T02:47:30,42.805,6.029,CST-1368DR,5683,7952,15052,0.147,551
2020-12-21T02:50:32,42.805,6.029,CST-1368DR,5683,7953,15053,0.147,550
2020-12-21T02:53:33,42.805,6.029,CST-1368DR,5683,7952,15052,0.147,551
2020-12-21T02:56:35,42.805,6.029,CST-1368DR,5683,7953,15053,0.147,551
2020-12-21T02:59:36,42.805,6.029,CST-1368DR,5683,7952,15052,0.147,551
2020-12-21T03:02:38,42.805,6.029,CST-1368DR,5683,7952,15051,0.147,551
2020-12-21T03:05:40,42.805,6.029,CST-1368DR,5683,7953,15053,0.147,551
2020-12-21T03:08:41,42.805,6.029,CST-1368DR,5683,7951,15051,0.147,551
2020-12-21T03:11:43,42.805,6.029,CST-1368DR,5683,7951,15051,0.147,551
2020-12-21T03:14:44,42.805,6.029,CST-1368DR,5683,7950,15049,0.148,551
2020-12-21T03:17:46,42.805,6.029,CST-1368DR,5683,7952,15051,0.147,551
2020-12-21T03:20:48,42.805,6.029,CST-1368DR,5683,7952,15052,0.147,551
2020-12-21T03:23:49,42.805,6.029,CST-1368DR,5683,7952,15051,0.147,551
2020-12-21T03:26:51,42.805,6.029,CST-1368DR,5683,7952,15051,0.147,551
2020-12-21T03:29:52,42.805,6.029,CST-1368DR,5683,7952,15051,0.147,551
2020-12-21T03:32:54,42.805,6.029,CST-1368DR,5683,7952,15051,0.147,551
2020-12-21T03:35:55,42.805,6.029,CST-1368DR,5683,7952,15051,0.147,551
2020-12-21T03:38:57,42.805,6.029,CST-1368DR,5683,7952,15052,0.147,551
2020-12-21T03:41:59,42.805,6.029,CST-1368DR,5683,7952,15052,0.147,551
2020-12-21T03:45:00,42.805,6.029,CST-1368DR,5683,7951,15051,0.147,551
2020-12-21T03:48:02,42.805,6.029,CST-1368DR,5683,7952,15052,0.147,551
2020-12-21T03:51:03,42.805,6.029,CST-1368DR,5683,7953,15053,0.147,551
2020-12-21T03:54:05,42.805,6.029,CST-1368DR,5683,7952,15051,0.147,551
2020-12-21T03:57:06,42.805,6.029,CST-1368DR,5683,7952,15052,0.147,551
2020-12-21T04:00:08,42.805,6.029,CST-1368DR,5683,7952,15052,0.147,551
2020-12-21T04:03:10,42.805,6.029,CST-1368DR,5683,7952,15051,0.147,551
2020-12-21T04:06:11,42.805,6.029,CST-1368DR,5683,7950,15048,0.148,551
2020-12-21T04:09:13,42.805,6.029,CST-1368DR,5683,7952,15051,0.147,551
2020-12-21T04:12:14,42.805,6.029,CST-1368DR,5683,7952,15051,0.147,551
2020-12-21T04:15:16,42.805,6.029,CST-1368DR,5683,7952,15052,0.147,551
2020-12-21T04:18:18,42.805,6.029,CST-1368DR,5683,7952,15051,0.147,551
2020-12-21T04:21:19,42.805,6.029,CST-1368DR,5683,7953,15053,0.147,551
2020-12-21T04:24:21,42.805,6.029,CST-1368DR,5683,7952,15052,0.147,551
2020-12-21T04:27:22,42.805,6.029,CST-1368DR,5683,7952,15052,0.147,551
2020-12-21T04:30:24,42.805,6.029,CST-1368DR,5683,7952,15052,0.147,551
2020-12-21T04:33:25,42.805,6.029,CST-1368DR,5683,7951,15050,0.148,551
2020-12-21T04:36:27,42.805,6.029,CST-1368DR,5683,7952,15051,0.147,551
2020-12-21T04:39:29,42.805,6.029,CST-1368DR,5683,7952,15052,0.147,551
2020-12-21T04:42:30,42.805,6.029,CST-1368DR,5683,7952,15051,0.147,551
2020-12-21T04:45:32,42.805,6.029,CST-1368DR,5683,7951,15051,0.147,551
2020-12-21T04:48:33,42.805,6.029,CST-1368DR,5683,7952,15051,0.147,551
2020-12-21T04:51:35,42.805,6.029,CST-1368DR,5683,7952,15052,0.147,551
2020-12-21T04:54:36,42.805,6.029,CST-1368DR,5683,7952,15051,0.147,551
2020-12-21T04:57:38,42.805,6.029,CST-1368DR,5683,7952,15051,0.147,551
2020-12-21T05:00:40,42.805,6.029,CST-1368DR,5683,7952,15051,0.147,551
2020-12-21T05:03:41,42.805,6.029,CST-1368DR,5683,7952,15052,0.147,551
2020-12-21T05:06:43,42.805,6.029,CST-1368DR,5683,7952,15051,0.147,551
2020-12-21T05:09:44,42.805,6.029,CST-1368DR,5683,7952,15052,0.147,551
2020-12-21T05:12:46,42.805,6.029,CST-1368DR,5683,7952,15051,0.147,551
2020-12-21T05:15:48,42.805,6.029,CST-1368DR,5683,7952,15051,0.147,551
2020-12-21T05:18:49,42.805,6.029,CST-1368DR,5683,7951,15051,0.147,551
2020-12-21T05:21:51,42.805,6.029,CST-1368DR,5683,7952,15052,0.147,551
2020-12-21T05:24:52,42.805,6.029,CST-1368DR,5683,7952,15052,0.147,551
2020-12-21T05:27:54,42.805,6.029,CST-1368DR,5683,7952,15051,0.147,551
2020-12-21T05:30:55,42.805,6.029,CST-1368DR,5683,7952,15051,0.147,551
2020-12-21T05:33:57,42.805,6.029,CST-1368DR,5683,7952,15051,0.147,551
2020-12-21T05:36:59,42.805,6.029,CST-1368DR,5683,7952,15051,0.147,551
2020-12-21T05:40:00,42.805,6.029,CST-1368DR,5683,7952,15052,0.147,551
2020-12-21T05:43:02,42.805,6.029,CST-1368DR,5683,7950,15049,0.148,551
2020-12-21T05:46:03,42.805,6.029,CST-1368DR,5683,7952,15052,0.147,551
2020-12-21T05:49:05,42.805,6.029,CST-1368DR,5683,7952,15051,0.147,551
2020-12-21T05:52:07,42.805,6.029,CST-1368DR,5683,7951,15050,0.148,551
2020-12-21T05:55:08,42.805,6.029,CST-1368DR,5683,7951,15051,0.147,551
2020-12-21T05:58:10,42.805,6.029,CST-1368DR,5683,7951,15051,0.147,551
2020-12-21T06:01:11,42.805,6.029,CST-1368DR,5683,7952,15052,0.147,551
2020-12-21T06:04:13,42.805,6.029,CST-1368DR,5683,7952,15051,0.147,551
2020-12-21T06:07:14,42.805,6.029,CST-1368DR,5683,7952,15052,0.147,551
2020-12-21T06:10:16,42.805,6.029,CST-1368DR,5683,7952,15052,0.147,551
2020-12-21T06:13:18,42.805,6.029,CST-1368DR,5683,7952,15052,0.147,551
2020-12-21T06:16:19,42.805,6.029,CST-1368DR,5683,7952,15051,0.147,551
2020-12-21T06:19:21,42.805,6.029,CST-1368DR,5683,7952,15051,0.147,551
2020-12-21T06:22:22,42.805,6.029,CST-1368DR,5683,7952,15052,0.147,551
2020-12-21T06:25:24,42.805,6.029,CST-1368DR,5683,7951,15050,0.148,551
2020-12-21T06:28:25,42.805,6.029,CST-1368DR,5683,7951,15050,0.148,550
2020-12-21T06:31:27,42.805,6.029,CST-1368DR,5683,7950,15048,0.148,551
2020-12-21T06:34:29,42.805,6.029,CST-1368DR,5683,7951,15050,0.148,551
2020-12-21T06:37:30,42.805,6.029,CST-1368DR,5683,7951,15051,0.147,551
2020-12-21T06:40:32,42.805,6.029,CST-1368DR,5683,7951,15051,0.147,551
2020-12-21T06:43:33,42.805,6.029,CST-1368DR,5683,7950,15049,0.148,551
2020-12-21T06:46:35,42.805,6.029,CST-1368DR,5683,7952,15051,0.147,551
2020-12-21T06:49:36,42.805,6.029,CST-1368DR,5683,7952,15051,0.147,551
2020-12-21T06:52:38,42.805,6.029,CST-1368DR,5683,7952,15051,0.147,551
2020-12-21T06:55:40,42.805,6.029,CST-1368DR,5683,7951,15051,0.147,551
2020-12-21T06:58:41,42.805,6.029,CST-1368DR,5683,7950,15047,0.148,551
2020-12-21T07:01:43,42.805,6.029,CST-1368DR,5683,7952,15052,0.147,551
2020-12-21T07:04:44,42.805,6.029,CST-1368DR,5683,7951,15049,0.148,551
2020-12-21T07:07:46,42.805,6.029,CST-1368DR,5682,7952,15054,0.147,551
2020-12-21T07:10:48,42.805,6.029,CST-1368DR,5683,7952,15051,0.147,551
2020-12-21T07:13:49,42.805,6.029,CST-1368DR,5682,7951,15053,0.147,551
2020-12-21T07:16:51,42.805,6.029,CST-1368DR,5683,7951,15049,0.148,551
2020-12-21T07:19:52,42.805,6.029,CST-1368DR,5683,7951,15050,0.148,551
2020-12-21T07:22:54,42.805,6.029,CST-1368DR,5682,7950,15051,0.147,551
2020-12-21T07:25:55,42.805,6.029,CST-1368DR,5682,7950,15051,0.147,551
2020-12-21T07:28:57,42.805,6.029,CST-1368DR,5682,7952,15054,0.147,551
2020-12-21T07:31:59,42.805,6.029,CST-1368DR,5682,7950,15051,0.147,551
2020-12-21T07:35:00,42.805,6.029,CST-1368DR,5682,7952,15054,0.147,551
2020-12-21T07:38:02,42.805,6.029,CST-1368DR,5682,7952,15054,0.147,551
2020-12-21T07:41:03,42.805,6.029,CST-1368DR,5682,7950,15051,0.147,551
2020-12-21T07:44:05,42.805,6.029,CST-1368DR,5682,7952,15054,0.147,551
2020-12-21T07:47:07,42.805,6.029,CST-1368DR,5682,7951,15053,0.147,551
2020-12-21T07:50:08,42.805,6.029,CST-1368DR,5683,7952,15052,0.147,551
2020-12-21T07:53:10,42.805,6.029,CST-1368DR,5682,7952,15054,0.147,551
2020-12-21T07:56:11,42.805,6.029,CST-1368DR,5683,7951,15051,0.147,551
2020-12-21T07:59:13,42.805,6.029,CST-1368DR,5682,7951,15053,0.147,551
2020-12-21T08:02:14,42.805,6.029,CST-1368DR,5682,7951,15053,0.147,551
2020-12-21T08:05:16,42.805,6.029,CST-1368DR,5682,7952,15054,0.147,551
2020-12-21T08:08:18,42.805,6.029,CST-1368DR,5682,7952,15055,0.146,551
2020-12-21T08:11:19,42.805,6.029,CST-1368DR,5682,7952,15054,0.147,550
2020-12-21T08:14:21,42.805,6.029,CST-1368DR,5682,7952,15054,0.147,551
2020-12-21T08:17:22,42.805,6.029,CST-1368DR,5682,7952,15054,0.147,550
2020-12-21T08:20:24,42.805,6.029,CST-1368DR,5683,7950,15049,0.148,551
2020-12-21T08:23:25,42.805,6.029,CST-1368DR,5682,7952,15054,0.147,551
2020-12-21T08:26:27,42.805,6.029,CST-1368DR,5682,7952,15054,0.147,551
2020-12-21T08:29:29,42.805,6.029,CST-1368DR,5682,7952,15054,0.147,551
2020-12-21T08:32:30,42.805,6.029,CST-1368DR,5682,7952,15054,0.147,551
2020-12-21T08:35:32,42.805,6.029,CST-1368DR,5682,7951,15053,0.147,551
2020-12-21T08:38:33,42.805,6.029,CST-1368DR,5682,7951,15053,0.147,551
2020-12-21T08:41:35,42.805,6.029,CST-1368DR,5683,7952,15052,0.147,551
2020-12-21T08:44:37,42.805,6.029,CST-1368DR,5682,7951,15052,0.147,551
2020-12-21T08:47:38,42.805,6.029,CST-1368DR,5682,7952,15054,0.147,551
2020-12-21T08:50:40,42.805,6.029,CST-1368DR,5682,7952,15054,0.147,551
2020-12-21T08:53:41,42.805,6.029,CST-1368DR,5682,7949,15049,0.148,551
2020-12-21T08:56:43,42.805,6.029,CST-1368DR,5682,7949,15048,0.148,551
2020-12-21T08:59:44,42.805,6.029,CST-1368DR,5682,7951,15052,0.147,551
2020-12-21T09:02:46,42.805,6.029,CST-1368DR,5682,7952,15054,0.147,551
2020-12-21T09:05:48,42.805,6.029,CST-1368DR,5682,7951,15053,0.147,551
2020-12-21T09:08:49,42.805,6.029,CST-1368DR,5682,7950,15050,0.148,551
2020-12-21T09:11:51,42.805,6.029,CST-1368DR,5682,7952,15054,0.147,551
2020-12-21T09:14:52,42.805,6.029,CST-1368DR,5682,7952,15054,0.147,551
2020-12-21T09:17:54,42.805,6.029,CST-1368DR,5682,7952,15054,0.147,551
2020-12-21T09:20:56,42.805,6.029,CST-1368DR,5682,7951,15053,0.147,551
2020-12-21T09:23:57,42.805,6.029,CST-1368DR,5682,7952,15054,0.147,551
2020-12-21T09:26:59,42.805,6.029,CST-1368DR,5682,7951,15053,0.147,551
2020-12-21T09:30:00,42.805,6.029,CST-1368DR,5682,7952,15054,0.147,551
2020-12-21T09:33:02,42.805,6.029,CST-1368DR,5682,7951,15053,0.147,551
2020-12-21T09:36:03,42.805,6.029,CST-1368DR,5682,7952,15054,0.147,551
2020-12-21T09:39:05,42.805,6.029,CST-1368DR,5682,7951,15053,0.147,551
2020-12-21T09:42:07,42.805,6.029,CST-1368DR,5682,7952,15055,0.146,551
2020-12-21T09:45:08,42.805,6.029,CST-1368DR,5682,7952,15054,0.147,551
2020-12-21T09:48:10,42.805,6.029,CST-1368DR,5682,7952,15055,0.146,551
2020-12-21T09:51:11,42.805,6.029,CST-1368DR,5682,7952,15054,0.147,551
2020-12-21T09:54:13,42.805,6.029,CST-1368DR,5682,7951,15053,0.147,551
2020-12-21T09:57:14,42.805,6.029,CST-1368DR,5682,7951,15053,0.147,551
2020-12-21T10:00:16,42.805,6.029,CST-1368DR,5682,7952,15054,0.147,551
2020-12-21T10:03:18,42.805,6.029,CST-1368DR,5682,7951,15053,0.147,551
2020-12-21T10:06:19,42.805,6.029,CST-1368DR,5682,7951,15053,0.147,551
2020-12-21T10:09:21,42.805,6.029,CST-1368DR,5682,7949,15049,0.148,551
2020-12-21T10:12:22,42.805,6.029,CST-1368DR,5682,7950,15050,0.148,551
2020-12-21T10:15:24,42.805,6.029,CST-1368DR,5682,7951,15052,0.147,550
2020-12-21T10:18:26,42.805,6.029,CST-1368DR,5682,7947,15044,0.149,551
2020-12-21T10:21:27,42.805,6.029,CST-1368DR,5682,7950,15050,0.148,551
2020-12-21T10:24:29,42.805,6.029,CST-1368DR,5682,7951,15053,0.147,551
2020-12-21T10:27:30,42.805,6.029,CST-1368DR,5682,7951,15052,0.147,551
2020-12-21T10:30:32,42.805,6.029,CST-1368DR,5682,7950,15051,0.147,551
2020-12-21T10:33:33,42.805,6.029,CST-1368DR,5682,7951,15053,0.147,551
2020-12-21T10:36:35,42.805,6.029,CST-1368DR,5682,7950,15051,0.147,551
2020-12-21T10:39:37,42.805,6.029,CST-1368DR,5682,7950,15051,0.147,551
2020-12-21T10:42:38,42.805,6.029,CST-1368DR,5682,7950,15051,0.147,551
2020-12-21T10:45:40,42.805,6.029,CST-1368DR,5682,7950,15051,0.147,551
2020-12-21T10:48:41,42.805,6.029,CST-1368DR,5682,7951,15052,0.147,551
2020-12-21T10:51:43,42.805,6.029,CST-1368DR,5682,7951,15053,0.147,551
2020-12-21T10:54:44,42.805,6.029,CST-1368DR,5682,7950,15051,0.147,551
2020-12-21T10:57:46,42.805,6.029,CST-1368DR,5682,7951,15052,0.147,551
2020-12-21T11:00:48,42.805,6.029,CST-1368DR,5682,7951,15052,0.147,551
2020-12-21T11:03:49,42.805,6.029,CST-1368DR,5682,7949,15049,0.148,551
2020-12-21T11:06:51,42.805,6.029,CST-1368DR,5682,7943,15038,0.151,551
2020-12-21T11:09:52,42.805,6.029,CST-1368DR,5682,7947,15045,0.149,551
2020-12-21T11:12:54,42.805,6.029,CST-1368DR,5682,7949,15049,0.148,551
2020-12-21T11:15:56,42.805,6.029,CST-1368DR,5682,7950,15050,0.148,551
2020-12-21T11:18:57,42.805,6.029,CST-1368DR,5682,7951,15053,0.147,551
2020-12-21T11:21:59,42.805,6.029,CST-1368DR,5682,7950,15050,0.148,551
2020-12-21T11:25:00,42.805,6.029,CST-1368DR,5682,7950,15051,0.147,551
2020-12-21T11:28:02,42.805,6.029,CST-1368DR,5682,7948,15046,0.149,551
2020-12-21T11:31:03,42.805,6.029,CST-1368DR,5682,7951,15053,0.147,551
2020-12-21T11:34:05,42.805,6.029,CST-1368DR,5682,7951,15053,0.147,551
2020-12-21T11:37:07,42.805,6.029,CST-1368DR,5682,7951,15053,0.147,551
2020-12-21T11:40:08,42.805,6.029,CST-1368DR,5682,7951,15053,0.147,551
2020-12-21T11:43:10,42.805,6.029,CST-1368DR,5682,7951,15053,0.147,551
2020-12-21T11:46:11,42.805,6.029,CST-1368DR,5682,7951,15053,0.147,551
2020-12-21T11:49:13,42.805,6.029,CST-1368DR,5682,7951,15053,0.147,550
2020-12-21T11:52:15,42.805,6.029,CST-1368DR,5682,7950,15051,0.147,551
2020-12-21T11:55:16,42.805,6.029,CST-1368DR,5682,7951,15053,0.147,551
2020-12-21T11:58:18,42.805,6.029,CST-1368DR,5682,7951,15052,0.147,551
2020-12-21T12:01:19,42.805,6.029,CST-1368DR,5682,7949,15048,0.148,551
2020-12-21T12:04:21,42.805,6.029,CST-1368DR,5682,7951,15053,0.147,551
2020-12-21T12:07:22,42.805,6.029,CST-1368DR,5682,7951,15053,0.147,551
2020-12-21T12:10:24,42.805,6.029,CST-1368DR,5682,7951,15053,0.147,551
2020-12-21T12:13:26,42.805,6.029,CST-1368DR,5682,7951,15053,0.147,551
2020-12-21T12:16:27,42.805,6.029,CST-1368DR,5682,7951,15052,0.147,551
2020-12-21T12:19:29,42.805,6.029,CST-1368DR,5682,7951,15053,0.147,551
2020-12-21T12:22:30,42.805,6.029,CST-1368DR,5682,7951,15053,0.147,551
2020-12-21T12:25:32,42.805,6.029,CST-1368DR,5682,7951,15053,0.147,551
2020-12-21T12:28:33,42.805,6.029,CST-1368DR,5682,7951,15053,0.147,551
2020-12-21T12:31:35,42.805,6.029,CST-1368DR,5682,7949,15049,0.148,551
2020-12-21T12:34:37,42.805,6.029,CST-1368DR,5682,7951,15052,0.147,551
2020-12-21T12:37:38,42.805,6.029,CST-1368DR,5682,7951,15053,0.147,551
2020-12-21T12:40:40,42.805,6.029,CST-1368DR,5682,7951,15053,0.147,551
2020-12-21T12:43:41,42.805,6.029,CST-1368DR,5682,7951,15053,0.147,551
2020-12-21T12:46:43,42.805,6.029,CST-1368DR,5682,7951,15052,0.147,551
2020-12-21T12:49:45,42.805,6.029,CST-1368DR,5682,7951,15053,0.147,551
2020-12-21T12:52:46,42.805,6.029,CST-1368DR,5682,7951,15053,0.147,551
2020-12-21T12:55:48,42.805,6.029,CST-1368DR,5682,7952,15054,0.147,551
2020-12-21T12:58:49,42.805,6.029,CST-1368DR,5682,7951,15053,0.147,551
2020-12-21T13:01:51,42.805,6.029,CST-1368DR,5682,7952,15054,0.147,551
2020-12-21T13:04:52,42.805,6.029,CST-1368DR,5682,7951,15053,0.147,551
2020-12-21T13:07:54,42.805,6.029,CST-1368DR,5682,7951,15053,0.147,551
2020-12-21T13:10:56,42.805,6.029,CST-1368DR,5682,7951,15053,0.147,551
2020-12-21T13:13:57,42.805,6.029,CST-1368DR,5682,7951,15053,0.147,551
2020-12-21T13:16:59,42.805,6.029,CST-1368DR,5682,7951,15053,0.147,551
2020-12-21T13:20:00,42.805,6.029,CST-1368DR,5682,7950,15051,0.147,551
2020-12-21T13:23:02,42.805,6.029,CST-1368DR,5682,7951,15053,0.147,550
2020-12-21T13:26:04,42.805,6.029,CST-1368DR,5682,7950,15051,0.147,551
2020-12-21T13:29:05,42.805,6.029,CST-1368DR,5682,7951,15053,0.147,551
2020-12-21T13:32:07,42.805,6.029,CST-1368DR,5682,7952,15054,0.147,551
2020-12-21T13:35:08,42.805,6.029,CST-1368DR,5682,7952,15054,0.147,551
2020-12-21T13:38:10,42.805,6.029,CST-1368DR,5682,7951,15052,0.147,551
2020-12-21T13:41:11,42.805,6.029,CST-1368DR,5682,7950,15050,0.148,551
2020-12-21T13:44:13,42.805,6.029,CST-1368DR,5682,7951,15053,0.147,551
2020-12-21T13:47:15,42.805,6.029,CST-1368DR,5682,7950,15050,0.148,550
2020-12-21T13:50:16,42.805,6.029,CST-1368DR,5682,7950,15051,0.147,551
2020-12-21T13:53:18,42.805,6.029,CST-1368DR,5682,7951,15053,0.147,551
2020-12-21T13:56:19,42.805,6.029,CST-1368DR,5682,7951,15052,0.147,550
2020-12-21T13:59:21,42.805,6.029,CST-1368DR,5682,7951,15053,0.147,551
2020-12-21T14:02:23,42.805,6.029,CST-1368DR,5682,7951,15053,0.147,551
2020-12-21T14:05:24,42.805,6.029,CST-1368DR,5682,7951,15053,0.147,551
2020-12-21T14:08:26,42.805,6.029,CST-1368DR,5682,7951,15052,0.147,551
2020-12-21T14:11:27,42.805,6.029,CST-1368DR,5682,7951,15052,0.147,551
2020-12-21T14:14:29,42.805,6.029,CST-1368DR,5682,7950,15051,0.147,551
2020-12-21T14:17:30,42.805,6.029,CST-1368DR,5682,7951,15052,0.147,551
2020-12-21T14:20:32,42.805,6.029,CST-1368DR,5682,7950,15051,0.147,551
2020-12-21T14:23:34,42.805,6.029,CST-1368DR,5682,7950,15051,0.147,551
2020-12-21T14:26:35,42.805,6.029,CST-1368DR,5682,7950,15050,0.148,551
2020-12-21T14:29:37,42.805,6.029,CST-1368DR,5682,7951,15052,0.147,551
2020-12-21T14:32:38,42.805,6.029,CST-1368DR,5682,7951,15052,0.147,551
2020-12-21T14:35:40,42.805,6.029,CST-1368DR,5682,7951,15053,0.147,551
2020-12-21T14:38:41,42.805,6.029,CST-1368DR,5682,7950,15051,0.147,551
2020-12-21T14:41:43,42.805,6.029,CST-1368DR,5682,7950,15051,0.147,551
2020-12-21T14:44:45,42.805,6.029,CST-1368DR,5682,7950,15050,0.148,551
2020-12-21T14:47:46,42.805,6.029,CST-1368DR,5682,7950,15051,0.147,551
2020-12-21T14:50:48,42.805,6.029,CST-1368DR,5682,7950,15051,0.147,551
2020-12-21T14:53:49,42.805,6.029,CST-1368DR,5682,7949,15049,0.148,550
2020-12-21T14:56:51,42.805,6.029,CST-1368DR,5682,7950,15051,0.147,551
2020-12-21T14:59:53,42.805,6.029,CST-1368DR,5682,7950,15051,0.147,551
2020-12-21T15:02:54,42.805,6.029,CST-1368DR,5682,7947,15045,0.149,551
2020-12-21T15:05:56,42.805,6.029,CST-1368DR,5682,7949,15049,0.148,550
2020-12-21T15:08:57,42.805,6.029,CST-1368DR,5682,7950,15050,0.148,551
2020-12-21T15:11:59,42.805,6.029,CST-1368DR,5682,7950,15051,0.147,551
2020-12-21T15:15:00,42.805,6.029,CST-1368DR,5682,7950,15050,0.148,551
2020-12-21T15:18:02,42.805,6.029,CST-1368DR,5682,7949,15049,0.148,551
2020-12-21T15:21:04,42.805,6.029,CST-1368DR,5682,7950,15050,0.148,551
2020-12-21T15:24:05,42.805,6.029,CST-1368DR,5682,7949,15049,0.148,551
2020-12-21T15:27:07,42.805,6.029,CST-1368DR,5682,7950,15050,0.148,551
2020-12-21T15:30:08,42.805,6.029,CST-1368DR,5682,7950,15050,0.148,551
2020-12-21T15:33:10,42.805,6.029,CST-1368DR,5682,7949,15049,0.148,551
2020-12-21T15:36:12,42.805,6.029,CST-1368DR,5682,7950,15050,0.148,551
2020-12-21T15:39:13,42.805,6.029,CST-1368DR,5682,7949,15049,0.148,551
2020-12-21T15:42:15,42.805,6.029,CST-1368DR,5682,7949,15048,0.148,551
2020-12-21T15:45:16,42.805,6.029,CST-1368DR,5682,7950,15051,0.147,551
2020-12-21T15:48:18,42.805,6.029,CST-1368DR,5682,7949,15049,0.148,551
2020-12-21T15:51:19,42.805,6.029,CST-1368DR,5682,7950,15050,0.148,551
2020-12-21T15:54:21,42.805,6.029,CST-1368DR,5682,7950,15050,0.148,551
2020-12-21T15:57:23,42.805,6.029,CST-1368DR,5682,7950,15051,0.147,551
2020-12-21T16:00:24,42.805,6.029,CST-1368DR,5682,7949,15049,0.148,551
2020-12-21T16:03:26,42.805,6.029,CST-1368DR,5682,7949,15049,0.148,551
2020-12-21T16:06:27,42.805,6.029,CST-1368DR,5682,7950,15050,0.148,551
2020-12-21T16:09:29,42.805,6.029,CST-1368DR,5682,7950,15050,0.148,551
2020-12-21T16:12:30,42.805,6.029,CST-1368DR,5682,7949,15049,0.148,551
2020-12-21T16:15:32,42.805,6.029,CST-1368DR,5681,7944,15042,0.150,551
2020-12-21T16:18:34,42.805,6.029,CST-1368DR,5681,7948,15049,0.148,551
2020-12-21T16:21:35,42.805,6.029,CST-1368DR,5682,7949,15049,0.148,551
2020-12-21T16:24:37,42.805,6.029,CST-1368DR,5681,7949,15051,0.147,551
2020-12-21T16:27:38,42.805,6.029,CST-1368DR,5682,7949,15049,0.148,551
2020-12-21T16:30:40,42.805,6.029,CST-1368DR,5681,7950,15052,0.147,551
2020-12-21T16:33:42,42.805,6.029,CST-1368DR,5681,7950,15052,0.147,551
2020-12-21T16:36:43,42.805,6.029,CST-1368DR,5681,7950,15053,0.147,551
2020-12-21T16:39:45,42.805,6.029,CST-1368DR,5682,7950,15051,0.147,551
2020-12-21T16:42:46,42.805,6.029,CST-1368DR,5681,7949,15051,0.147,551
2020-12-21T16:45:48,42.805,6.029,CST-1368DR,5681,7949,15051,0.147,551
2020-12-21T16:48:49,42.805,6.029,CST-1368DR,5681,7950,15053,0.147,551
2020-12-21T16:51:51,42.805,6.029,CST-1368DR,5682,7949,15048,0.148,551